Flight Track Log - Related Links

Times and Time Zones

All times are in EDT time to prevent confusion due to time zone crossing. See the JZA8436 flight status page for this flight to view local times or setup timezone preferences in your user account.

Time Position Orientation Groundspeed Altitude Reporting Facility
EDT Latitude Longitude Course Direction KTS MPH feet Rate Location/Type
Thu 01:16:22 PM 51.0667 -114.0333 94° East 150 173 4,600  Level Edmonton Center
Thu 01:17:22 PM 51.0333 -114.0000 148° Southeast 140 161 7,400 2,550 Climbing Edmonton Center
Thu 01:18:22 PM 51.0500 -113.9167 72° East 170 196 9,700 1,900 Climbing Edmonton Center
Thu 01:19:22 PM 51.0500 -113.8333 90° East 210 242 11,200 1,650 Climbing Edmonton Center
Thu 01:20:22 PM 51.0500 -113.7333 90° East 220 253 13,000 1,900 Climbing Edmonton Center
Thu 01:21:00 PM 51.0833 -113.1076 90° East  Level FlightAware Approximate
Thu 01:21:22 PM 51.0500 -113.6167 90° East 230 265 15,000  Level Edmonton Center
Thu 01:22:00 PM 51.0787 -112.9562 94° East  Level FlightAware Approximate
Thu 01:22:22 PM 51.0333 -113.5333 108° East 230 265 16,700  Level Edmonton Center
Thu 01:23:22 PM 51.0500 -113.4333 75° East 230 265 18,200 1,300 Climbing Edmonton Center
Thu 01:24:22 PM 51.0333 -113.3167 103° East 240 276 19,300 1,200 Climbing Edmonton Center
Thu 01:25:22 PM 51.0333 -113.2167 90° East 250 288 20,600 1,200 Climbing Edmonton Center
Thu 01:26:22 PM 51.0167 -113.1000 103° East 260 299 21,700 1,150 Climbing Edmonton Center
Thu 01:27:22 PM 51.0333 -112.9667 79° East 250 288 22,900 650 Climbing Edmonton Center
Thu 01:28:22 PM 51.0167 -112.8667 105° East 270 311 23,000 50 Climbing Edmonton Center
Thu 01:29:21 PM 51.0167 -112.7333 90° East 290 334 23,000  Level Edmonton Center
Thu 01:30:21 PM 51.0167 -112.5833 90° East 310 357 23,000  Level Edmonton Center
Thu 01:31:21 PM 51.0167 -112.4500 90° East 310 357 23,000  Level Edmonton Center
Thu 01:32:21 PM 51.0167 -112.3000 90° East 320 368 23,000  Level Edmonton Center
Thu 01:33:21 PM 51.0000 -112.1500 100° East 320 368 23,000  Level Edmonton Center
Thu 01:34:21 PM 51.0000 -112.0167 90° East 320 368 23,000  Level Edmonton Center
Thu 01:35:21 PM 50.9833 -111.8833 101° East 320 368 23,000  Level Edmonton Center
Thu 01:36:21 PM 50.9833 -111.7167 92° East 320 368 23,000  Level Edmonton Center
Thu 01:37:00 PM 50.9756 -111.6087 92° East  Level FlightAware Approximate
Thu 01:37:21 PM 50.9667 -111.5833 101° East 320 368 23,000  Level Edmonton Center
Thu 01:38:21 PM 50.9833 -111.4500 79° East 320 368 23,000  Level Edmonton Center
Thu 01:39:21 PM 50.9667 -111.3167 101° East 320 368 23,000  Level Edmonton Center
Thu 01:40:21 PM 50.9667 -111.1833 90° East 320 368 23,000  Level Edmonton Center
Thu 01:41:21 PM 50.9500 -111.0167 99° East 320 368 23,000  Level Edmonton Center
Thu 01:42:21 PM 50.9500 -110.8833 90° East 320 368 23,000  Level Edmonton Center
Thu 01:43:21 PM 50.9333 -110.7500 101° East 320 368 23,000  Level Edmonton Center
Thu 01:44:21 PM 50.9333 -110.5833 90° East 330 380 23,000  Level Edmonton Center
Thu 01:45:21 PM 50.9167 -110.4500 101° East 320 368 23,000  Level Edmonton Center
Thu 01:46:21 PM 50.9000 -110.3167 101° East 320 368 23,000  Level Edmonton Center
Thu 01:47:21 PM 50.9167 -110.1500 81° East 320 368 23,000  Level Edmonton Center
Thu 01:48:21 PM 50.9000 -110.0167 101° East 320 368 23,000  Level Edmonton Center
Thu 01:49:21 PM 50.9000 -109.8833 90° East 320 368 23,000  Level Edmonton Center
Thu 01:50:21 PM 50.8833 -109.7500 101° East 320 368 23,000  Level Edmonton Center
Thu 01:51:21 PM 50.8667 -109.5833 99° East 330 380 23,000  Level Edmonton Center
Thu 01:52:21 PM 50.8667 -109.4500 90° East 330 380 23,000  Level Edmonton Center
Thu 01:53:21 PM 50.8667 -109.3000 90° East 330 380 23,000  Level Edmonton Center
Thu 01:54:21 PM 50.8500 -109.1667 101° East 330 380 23,000  Level Edmonton Center
Thu 01:55:21 PM 50.8500 -109.0000 90° East 330 380 23,000  Level Edmonton Center
Thu 01:56:21 PM 50.8333 -108.8667 101° East 330 380 23,000  Level Edmonton Center
Thu 01:57:21 PM 50.8167 -108.7000 99° East 330 380 23,000  Level Edmonton Center
Thu 01:58:21 PM 50.8000 -108.5667 101° East 330 380 23,000  Level Edmonton Center
Thu 01:59:21 PM 50.8167 -108.4333 79° East 330 380 23,000  Level Edmonton Center
Thu 02:00:21 PM 50.8000 -108.2667 99° East 330 380 23,000  Level Edmonton Center
Thu 02:01:21 PM 50.7833 -108.1167 100° East 330 380 23,000  Level Edmonton Center
Thu 02:02:11 PM 50.7833 -108.0333 90° East 340 391 23,000  Level Winnipeg Center
Thu 02:03:21 PM 50.7667 -107.8167 97° East 340 391 23,000  Level Edmonton Center
Thu 02:04:21 PM 50.7500 -107.6833 101° East 330 380 23,000  Level Edmonton Center
Thu 02:05:21 PM 50.7333 -107.5167 99° East 340 391 23,000  Level Edmonton Center
Thu 02:06:21 PM 50.7333 -107.3833 90° East 340 391 23,000  Level Edmonton Center
Thu 02:07:21 PM 50.7333 -107.2333 90° East 340 391 23,000  Level Edmonton Center
Thu 02:08:21 PM 50.7167 -107.1000 101° East 340 391 23,000  Level Edmonton Center
Thu 02:10:21 PM 50.6833 -106.7667 99° East 340 391 23,000  Level Edmonton Center
Thu 02:11:21 PM 50.6667 -106.6167 100° East 340 391 23,000 -200 Level Edmonton Center
Thu 02:12:21 PM 50.6500 -106.4833 101° East 350 403 22,600 -950 Descending Edmonton Center
Thu 02:13:21 PM 50.6500 -106.3167 90° East 350 403 21,100 -1,600 Descending Edmonton Center
Thu 02:14:21 PM 50.6333 -106.1667 100° East 360 414 19,400 -1,550 Descending Edmonton Center
Thu 02:15:21 PM 50.6333 -106.0333 90° East 350 403 18,000 -1,650 Descending Edmonton Center
Thu 02:16:21 PM 50.6167 -105.8667 99° East 350 403 16,100 -1,700 Descending Edmonton Center
Thu 02:17:21 PM 50.6000 -105.7167 100° East 340 391 14,600 -1,550 Descending Edmonton Center
Thu 02:18:21 PM 50.6000 -105.5833 90° East 320 368 13,000 -1,200 Descending Edmonton Center
Thu 02:19:21 PM 50.5833 -105.4500 101° East 310 357 12,200 -1,364 Descending Edmonton Center
Thu 02:20:11 PM 50.5833 -105.3500 90° East 290 334 10,500 -1,582 Descending Winnipeg Center
Thu 02:21:11 PM 50.5667 -105.2500 105° East 260 299 9,300 -1,150 Descending Winnipeg Center
Thu 02:22:11 PM 50.5833 -105.1500 75° East 250 288 8,200 -1,140 Descending Winnipeg Center
Thu 02:23:12 PM 50.5667 -105.0333 103° East 240 276 7,000 -1,050 Descending Winnipeg Center
Thu 02:24:11 PM 50.5500 -104.9500 107° East 220 253 6,100 -958 Descending Winnipeg Center
Thu 02:25:11 PM 50.5500 -104.8833 90° East 200 230 5,100 -950 Descending Winnipeg Center
Thu 02:26:11 PM 50.5167 -104.8167 128° Southeast 170 196 4,200 -750 Descending Winnipeg Center
Thu 02:27:11 PM 50.4833 -104.7833 148° Southeast 150 173 3,600 -645 Descending Winnipeg Center
Thu 02:28:12 PM 50.4500 -104.7333 136° Southeast 130 150 2,900 -694 Descending Winnipeg Center
Thu 02:29:12 PM 50.4333 -104.7000 128° Southeast 110 127 2,200 -700 Descending Winnipeg Center

Login

Don't have an account? Register now (free) for customized features, flight alerts, and more!